Lincoln, NE

5:04 PM CST on February 22, 2018 (GMT -0600)
Lincoln Municipal

Weather History for KLNK - July, 2013

Change the Weather History Date:

Saturday, July 20, 2013

  Actual Average Record
Temperature  
Mean Temperature 78 °F 78 °F  
Max Temperature 90 °F 89 °F 110 °F (1934)
Min Temperature 65 °F 66 °F 54 °F (1988)
Degree Days  
Heating Degree Days 0 0  
Month to date heating degree days 0 0  
Since 1 June heating degree days 20 16  
Since 1 July heating degree days 0 0  
Cooling Degree Days 13 13  
Month to date cooling degree days 269 253  
Year to date cooling degree days 587 574  
Since 1 June cooling degree days 500 495  
Growing Degree Days 27 (Base 50)    
Moisture  
Dew Point 61 °F    
Average Humidity 57    
Maximum Humidity 87    
Minimum Humidity 27    
Precipitation  
Precipitation 0.00 in 0.11 in 1.77 in (1891)
Month to date precipitation T 2.28  
Year to date precipitation 18.34 16.97  
Snow  
Snow 0.00 in 0.00 in - ()
Month to date snowfall 0.0 0.0  
Since 1 July snowfall 0.0 0.0  
Snow Depth 0.00 in    
Sea Level Pressure  
Sea Level Pressure 29.91 in    
Wind  
Wind Speed 7 mph (East)    
Max Wind Speed 16 mph    
Max Gust Speed 20 mph    
Visibility 10 miles    
Events      
T = Trace of Precipitation, MM = Missing Value Source: NWS Daily Summary

Daily Weather History Graph

Daily Weather History Graph

Search for Another Location

Airport or City:

Trip Planner

Search our weather history database for the weather conditions in past years. The results will help you decide how hot, cold, wet, or windy it might be!

Date:

Astronomy

Jul. 20, 2013 Rise Set
Actual Time 6:12 AM CDT 8:53 PM CDT
Civil Twilight 5:40 AM CDT 9:25 PM CDT
Nautical Twilight 5:00 AM CDT 10:05 PM CDT
Astronomical Twilight 4:15 AM CDT 10:50 PM CDT
Moon 6:58 PM CDT (7/20) 3:53 AM CDT (7/20)
Length of Visible Light 15h 44m
Length of Day
14h 41m
Waxing Gibbous, 94% of the Moon is Illuminated
Jul 20
Waxing Gibbous
Jul 22
Full
Jul 29
Last Quarter
Aug 6
New
Aug 14
First Quarter

Hourly Weather History & Observations

Time (CDT) Temp. Heat Index Dew Point Humidity Pressure Visibility Wind Dir Wind Speed Gust Speed Precip Events Conditions
12:54 AM 72.0 °F - 63.0 °F 73% 29.93 in 10.0 mi North 3.5 mph - N/A   Scattered Clouds
1:54 AM 72.0 °F - 62.1 °F 71% 29.93 in 10.0 mi North 5.8 mph - N/A   Partly Cloudy
2:54 AM 72.0 °F - 61.0 °F 68% 29.91 in 10.0 mi North 3.5 mph - N/A   Partly Cloudy
3:54 AM 68.0 °F - 61.0 °F 78% 29.91 in 10.0 mi North 3.5 mph - N/A   Clear
4:54 AM 66.0 °F - 61.0 °F 84% 29.90 in 10.0 mi North 4.6 mph - N/A   Clear
5:54 AM 68.0 °F - 61.0 °F 78% 29.91 in 10.0 mi Calm Calm - N/A   Clear
6:54 AM 64.9 °F - 61.0 °F 87% 29.92 in 10.0 mi North 6.9 mph - N/A   Clear
7:54 AM 75.0 °F - 62.1 °F 64% 29.90 in 10.0 mi ESE 4.6 mph - N/A   Clear
8:54 AM 79.0 °F - 62.1 °F 56% 29.92 in 10.0 mi SSE 3.5 mph - N/A   Clear
9:54 AM 80.1 °F 81.5 °F 63.0 °F 56% 29.95 in 10.0 mi NE 11.5 mph - N/A   Mostly Cloudy
10:54 AM 80.1 °F 81.5 °F 63.0 °F 56% 29.98 in 10.0 mi ENE 12.7 mph - N/A   Partly Cloudy
11:54 AM 84.0 °F 85.4 °F 64.0 °F 51% 29.97 in 10.0 mi NE 13.8 mph - N/A   Clear
12:54 PM 86.0 °F 86.3 °F 62.1 °F 44% 29.94 in 10.0 mi East 10.4 mph - N/A   Clear
1:54 PM 84.9 °F 83.9 °F 57.0 °F 38% 29.94 in 10.0 mi East 10.4 mph - N/A   Clear
2:54 PM 84.9 °F 83.9 °F 57.0 °F 38% 29.92 in 10.0 mi SSE 9.2 mph - N/A   Clear
3:54 PM 89.1 °F - 52.0 °F 28% 29.89 in 10.0 mi East 11.5 mph 18.4 mph N/A   Clear
4:54 PM 89.1 °F - 51.1 °F 27% 29.89 in 10.0 mi East 10.4 mph - N/A   Clear
5:54 PM 87.1 °F 84.9 °F 53.1 °F 31% 29.86 in 10.0 mi SE 12.7 mph - N/A   Clear
6:54 PM 82.9 °F 83.3 °F 61.0 °F 47% 29.85 in 10.0 mi SE 11.5 mph - N/A   Clear
7:54 PM 82.9 °F 84.0 °F 63.0 °F 51% 29.84 in 10.0 mi SSE 9.2 mph - N/A   Scattered Clouds
8:54 PM 77.0 °F - 64.0 °F 64% 29.86 in 10.0 mi South 8.1 mph - N/A   Clear
9:54 PM 77.0 °F - 64.0 °F 64% 29.90 in 10.0 mi Calm Calm - N/A   Clear
10:54 PM 73.0 °F - 64.9 °F 76% 29.90 in 10.0 mi SSE 5.8 mph - N/A   Mostly Cloudy
11:54 PM 73.9 °F - 66.0 °F 76% 29.90 in 10.0 mi South 3.5 mph - N/A   Clear